Voltar ao catálogo

ONEWEB-0178

AtivoComunicaçõesPO
NORAD 48075·PAYLOAD·🇬🇧 United Kingdom

Lançado Mar 25, 2021 de Vostochny Cosmodrome

Loading…

Próximas Passagens (próximas 24 horas)

TLE

AtualizadoSource: CelesTrak SupGP

Época: Sep 15, 2026, 02:06 UTC

1 48075C 21025AK  26258.08801343  .00000389  00000+0  10675-2 0  2582
2 48075  87.8916 302.3463 0001753  89.8852 297.0458 13.13471817    14

Acompanhe ONEWEB-0178 em tempo real com AllMySat

Download on the App Store